User: anonymous   Login
Location: Fremont
(37.5480°N, 121.9880°W)
Time: 12:15:48
(UTC-08:00)
Language:

Cosmos 1844 Rocket - Orbit

View from above orbital plane
View from above orbital plane
View from above satellite
View from above satellite

Ground track
Ground track

The orbit data is extracted from the following two-line orbital elements,

1 17974U 87041B   14351.57108709  .00000250  00000-0  14755-3 0  2815
2 17974 071.0084 032.5253 0014958 338.5762 173.4722 14.17131756427387
Epoch (UTC): 17 December 2014 13:42:21
Eccentricity: 0.0014958
inclination: 71.0084°
perigee height: 824 km
apogee height: 846 km
right ascension of ascending node: 32.5253°
argument of perigee: 338.5762°
revolutions per day: 14.17131756
mean anomaly at epoch: 173.4722°
orbit number at epoch: 42738

The dashed part of the orbit path shows where the satellite is in the earth's shadow,  

DLR